sat.trackr.live / text

‹ back to catalog

STARLINK-37133

NORAD 68265 · 2026-055D

PAYLOAD ACTIVE UNKNOWN

§ Identity

Operator
Country
US
Launch date
2026-03-19
Launch site
AFETR
Launch vehicle
Mass (kg)
RCS (m²)

Purposes: comms

External: N2YO · Heavens-Above · Gunter

§ Orbital elements

Epoch: 2026-05-24T19:03:39.439872Z

Period
94.11 min
Inclination
53.1581°
Eccentricity
0.0000851
Mean motion
15.30202623 rev/d
Perigee alt
474.6 km
Apogee alt
475.8 km
Semi-major
6,853.3 km
B*
5.8195e-4
RAAN
326.4285°
Arg perigee
79.0816°
Mean anomaly
281.0281°
Rev number
1,157

§ Raw data

STARLINK-371331 68265U 26055D   26144.79420648  .00016917  00000+0  58195-3 0  99962 68265  53.1581 326.4285 0000851  79.0816 281.0281 15.30202623 11577

JSON: /api/v1/satellites/68265 · /tle

For live sub-satellite position, see the globe view (requires WebGL).

§ Visibility from observer

Set your observer location to see the next 7 days of passes ≥ 10°. The values pass through the URL so the page stays shareable.

No JS? Fill the form by hand. The geolocation button needs JavaScript.